DRAGON CRS-14 DEB (43269 NORAD) Tracking and Keplerian Element Data

This shows tracking and keplerian element data for the satellite.

Feedback or suggestion? Click here.




ElementValue
Catalog43269
NameDRAGON CRS-14 DEB
Epoch Orbit69
Epoch Day97.1336774
Epoch Year2018
RAAN11.1949
Inclination51.6372
Eccentricity0.0024401
Argument of Perigee73.5215
Mean Anonmoly287.3706
Mean Motion16.32073521
Decay Rate0.10579115
L11 43269U 18032C 18097.13367740 .10579115 12291-4 16516-2 0 9993
L22 43269 51.6372 11.1949 0024401 73.5215 287.3706 16.32073521 697

Live tracking and technical data element details for DRAGON CRS-14 DEB (NORAD 43269). DRAGON CRS-14 DEB can be tracked NOW for your location showing map with azimuth and elevation plus other details from your city location.

Track the satellite on the map from your city or location and see movement details for azimuth, elevation, latitude, longitude, range, height, and movement on the map or in text.







IsCatalogInMostPopularTable: catalog: 43269, numindb: 59
Update: records affected: 1



GetName: 43269 DRAGON CRS-14 DEB

Hit Count: updated at: Thu, 15 Nov 2018 03:42:13 GMT